Time,TemperatureF,DewpointF,PressureIn,WindDirection,WindDirectionDegrees,WindSpeedMPH,WindSpeedGustMPH,Humidity,HourlyPrecipIn,Conditions,Clouds,dailyrainin,SoftwareType,DateUTC
2013-10-25 00:05:00,31.3,27.9,30.23,WSW,247,0.0,-999.0,87,-99.99,,,0.00,Acu-Link.com,2013-10-25 04:05:00,
2013-10-25 00:20:00,30.7,27.3,30.23,WSW,247,0.0,-999.0,87,-99.99,,,0.00,Acu-Link.com,2013-10-25 04:20:00,
2013-10-25 00:36:00,30.6,27.2,30.24,SW,225,0.0,-999.0,87,-99.99,,,0.00,Acu-Link.com,2013-10-25 04:36:00,
2013-10-25 00:51:00,30.7,27.6,30.24,WSW,247,0.0,-999.0,88,-99.99,,,0.00,Acu-Link.com,2013-10-25 04:51:00,
2013-10-25 01:06:00,30.9,27.8,30.25,West,270,0.0,-999.0,88,-99.99,,,0.00,Acu-Link.com,2013-10-25 05:06:00,
2013-10-25 01:21:00,31.3,27.9,30.25,SW,225,0.0,-999.0,87,-99.99,,,0.00,Acu-Link.com,2013-10-25 05:21:00,
2013-10-25 01:36:00,31.5,27.2,30.25,WSW,247,0.0,-999.0,84,-99.99,,,0.00,Acu-Link.com,2013-10-25 05:36:00,
2013-10-25 01:52:00,31.5,26.4,30.26,West,270,0.0,-999.0,81,-99.99,,,0.00,Acu-Link.com,2013-10-25 05:52:00,
2013-10-25 02:07:00,31.5,26.9,30.26,WSW,247,0.0,-999.0,83,-99.99,,,0.00,Acu-Link.com,2013-10-25 06:07:00,
2013-10-25 02:22:00,31.3,26.7,30.26,West,270,1.7,-999.0,83,-99.99,,,0.00,Acu-Link.com,2013-10-25 06:22:00,
2013-10-25 02:37:00,31.3,26.7,30.27,WNW,292,1.7,-999.0,83,-99.99,,,0.00,Acu-Link.com,2013-10-25 06:37:00,
2013-10-25 02:52:00,31.3,26.7,30.28,WSW,247,1.7,-999.0,83,-99.99,,,0.00,Acu-Link.com,2013-10-25 06:52:00,
2013-10-25 03:08:00,31.1,26.6,30.28,West,270,0.0,-999.0,83,-99.99,,,0.00,Acu-Link.com,2013-10-25 07:08:00,
2013-10-25 03:23:00,30.7,26.4,30.27,West,270,0.0,-999.0,84,-99.99,,,0.00,Acu-Link.com,2013-10-25 07:23:00,
2013-10-25 03:38:00,30.6,26.6,30.28,West,270,0.0,-999.0,85,-99.99,,,0.00,Acu-Link.com,2013-10-25 07:38:00,
2013-10-25 03:53:00,30.4,26.4,30.29,West,270,0.0,-999.0,85,-99.99,,,0.00,Acu-Link.com,2013-10-25 07:53:00,
2013-10-25 04:08:00,30.2,26.0,30.29,West,270,0.0,-999.0,84,-99.99,,,0.00,Acu-Link.com,2013-10-25 08:08:00,
2013-10-25 04:23:00,30.2,26.2,30.29,West,270,0.0,-999.0,85,-99.99,,,0.00,Acu-Link.com,2013-10-25 08:23:00,
2013-10-25 04:38:00,30.0,26.0,30.30,WSW,247,0.0,-999.0,85,-99.99,,,0.00,Acu-Link.com,2013-10-25 08:38:00,
2013-10-25 04:54:00,29.7,26.0,30.30,West,270,2.2,-999.0,86,-99.99,,,0.00,Acu-Link.com,2013-10-25 08:54:00,
2013-10-25 05:09:00,29.7,26.0,30.30,West,270,1.7,-999.0,86,-99.99,,,0.00,Acu-Link.com,2013-10-25 09:09:00,
2013-10-25 05:24:00,29.8,25.9,30.30,West,270,1.7,-999.0,85,-99.99,,,0.00,Acu-Link.com,2013-10-25 09:24:00,
2013-10-25 05:39:00,29.8,26.1,30.30,NNW,337,1.1,-999.0,86,-99.99,,,0.00,Acu-Link.com,2013-10-25 09:39:00,
2013-10-25 05:54:00,29.7,26.0,30.31,WSW,247,0.0,-999.0,86,-99.99,,,0.00,Acu-Link.com,2013-10-25 09:54:00,
2013-10-25 06:10:00,29.7,26.0,30.31,West,270,2.2,-999.0,86,-99.99,,,0.00,Acu-Link.com,2013-10-25 10:10:00,
2013-10-25 06:25:00,28.8,25.4,30.33,WSW,247,0.0,-999.0,87,-99.99,,,0.00,Acu-Link.com,2013-10-25 10:25:00,
2013-10-25 06:40:00,28.6,25.5,30.33,WSW,247,0.0,-999.0,88,-99.99,,,0.00,Acu-Link.com,2013-10-25 10:40:00,
2013-10-25 06:55:00,28.4,25.3,30.34,SSW,202,0.0,-999.0,88,-99.99,,,0.00,Acu-Link.com,2013-10-25 10:55:00,
2013-10-25 07:10:00,28.4,25.6,30.35,West,270,0.0,-999.0,89,-99.99,,,0.00,Acu-Link.com,2013-10-25 11:10:00,
2013-10-25 07:26:00,28.6,25.5,30.35,WSW,247,0.0,-999.0,88,-99.99,,,0.00,Acu-Link.com,2013-10-25 11:26:00,
2013-10-25 07:41:00,28.2,25.1,30.35,WSW,247,2.2,-999.0,88,-99.99,,,0.00,Acu-Link.com,2013-10-25 11:41:00,
2013-10-25 07:56:00,28.2,25.1,30.35,West,270,1.7,-999.0,88,-99.99,,,0.00,Acu-Link.com,2013-10-25 11:56:00,
2013-10-25 08:12:00,28.6,25.5,30.36,SSW,202,0.0,-999.0,88,-99.99,,,0.00,Acu-Link.com,2013-10-25 12:12:00,
2013-10-25 08:27:00,28.4,25.6,30.37,WSW,247,1.7,-999.0,89,-99.99,,,0.00,Acu-Link.com,2013-10-25 12:27:00,
2013-10-25 08:42:00,28.6,25.5,30.37,WSW,247,0.0,-999.0,88,-99.99,,,0.00,Acu-Link.com,2013-10-25 12:42:00,
2013-10-25 08:57:00,29.3,26.2,30.38,West,270,1.1,-999.0,88,-99.99,,,0.00,Acu-Link.com,2013-10-25 12:57:00,
2013-10-25 09:13:00,30.2,26.8,30.38,West,270,2.2,-999.0,87,-99.99,,,0.00,Acu-Link.com,2013-10-25 13:13:00,
2013-10-25 09:28:00,31.1,27.4,30.38,West,270,2.2,-999.0,86,-99.99,,,0.00,Acu-Link.com,2013-10-25 13:28:00,
2013-10-25 09:43:00,32.2,28.2,30.38,West,270,1.7,-999.0,85,-99.99,,,0.00,Acu-Link.com,2013-10-25 13:43:00,
2013-10-25 09:58:00,32.9,28.9,30.39,ENE,67,0.0,-999.0,85,-99.99,,,0.00,Acu-Link.com,2013-10-25 13:58:00,
2013-10-25 10:13:00,34.0,29.4,30.39,SW,225,0.0,-999.0,83,-99.99,,,0.00,Acu-Link.com,2013-10-25 14:13:00,
2013-10-25 10:28:00,35.2,29.7,30.39,WNW,292,2.7,-999.0,80,-99.99,,,0.00,Acu-Link.com,2013-10-25 14:28:00,
2013-10-25 10:43:00,36.3,30.4,30.39,SW,225,1.7,-999.0,79,-99.99,,,0.00,Acu-Link.com,2013-10-25 14:43:00,
2013-10-25 10:59:00,37.9,31.0,30.39,WSW,247,2.2,-999.0,76,-99.99,,,0.00,Acu-Link.com,2013-10-25 14:59:00,
2013-10-25 11:14:00,38.8,30.6,30.39,SSE,157,1.7,-999.0,72,-99.99,,,0.00,Acu-Link.com,2013-10-25 15:14:00,
2013-10-25 11:29:00,40.5,30.8,30.39,NNE,22,1.1,-999.0,68,-99.99,,,0.00,Acu-Link.com,2013-10-25 15:29:00,
2013-10-25 11:44:00,42.6,31.3,30.38,SE,135,0.0,-999.0,64,-99.99,,,0.00,Acu-Link.com,2013-10-25 15:44:00,
2013-10-25 11:59:00,44.4,30.6,30.38,SW,225,1.7,-999.0,58,-99.99,,,0.00,Acu-Link.com,2013-10-25 15:59:00,
2013-10-25 12:14:00,44.4,29.3,30.38,West,270,3.7,-999.0,55,-99.99,,,0.00,Acu-Link.com,2013-10-25 16:14:00,
2013-10-25 12:30:00,45.5,28.9,30.38,NNW,337,1.7,-999.0,52,-99.99,,,0.00,Acu-Link.com,2013-10-25 16:30:00,
2013-10-25 12:45:00,46.8,29.6,30.38,West,270,2.7,-999.0,51,-99.99,,,0.00,Acu-Link.com,2013-10-25 16:45:00,
2013-10-25 13:00:00,46.8,28.7,30.37,NE,45,1.7,-999.0,49,-99.99,,,0.00,Acu-Link.com,2013-10-25 17:00:00,
2013-10-25 13:15:00,46.2,26.6,30.37,SW,225,3.7,-999.0,46,-99.99,,,0.00,Acu-Link.com,2013-10-25 17:15:00,
2013-10-25 13:30:00,47.7,28.5,30.37,West,270,3.7,-999.0,47,-99.99,,,0.00,Acu-Link.com,2013-10-25 17:30:00,
2013-10-25 13:46:00,48.4,26.9,30.36,NNW,337,4.2,-999.0,43,-99.99,,,0.00,Acu-Link.com,2013-10-25 17:46:00,
2013-10-25 14:01:00,47.7,26.3,30.36,WSW,247,1.7,-999.0,43,-99.99,,,0.00,Acu-Link.com,2013-10-25 18:01:00,
2013-10-25 14:16:00,49.6,26.3,30.35,SW,225,4.2,-999.0,40,-99.99,,,0.00,Acu-Link.com,2013-10-25 18:16:00,
2013-10-25 14:31:00,49.8,27.1,30.34,West,270,2.7,-999.0,41,-99.99,,,0.00,Acu-Link.com,2013-10-25 18:31:00,
2013-10-25 14:46:00,52.0,27.2,30.33,West,270,1.7,-999.0,38,-99.99,,,0.00,Acu-Link.com,2013-10-25 18:46:00,
2013-10-25 15:01:00,49.6,23.8,30.32,WSW,247,3.2,-999.0,36,-99.99,,,0.00,Acu-Link.com,2013-10-25 19:01:00,
2013-10-25 15:16:00,51.4,26.0,30.32,WSW,247,1.7,-999.0,37,-99.99,,,0.00,Acu-Link.com,2013-10-25 19:16:00,
2013-10-25 15:32:00,49.6,25.7,30.31,South,180,2.2,-999.0,39,-99.99,,,0.00,Acu-Link.com,2013-10-25 19:32:00,
2013-10-25 15:47:00,52.0,26.5,30.31,ESE,112,2.2,-999.0,37,-99.99,,,0.00,Acu-Link.com,2013-10-25 19:47:00,
2013-10-25 16:02:00,50.7,26.0,30.30,WSW,247,3.7,-999.0,38,-99.99,,,0.00,Acu-Link.com,2013-10-25 20:02:00,
2013-10-25 16:17:00,51.1,23.7,30.29,WSW,247,2.7,-999.0,34,-99.99,,,0.00,Acu-Link.com,2013-10-25 20:17:00,
2013-10-25 16:33:00,50.2,24.9,30.29,SSW,202,3.2,-999.0,37,-99.99,,,0.00,Acu-Link.com,2013-10-25 20:33:00,
2013-10-25 16:48:00,51.3,24.6,30.29,WSW,247,2.2,-999.0,35,-99.99,,,0.00,Acu-Link.com,2013-10-25 20:48:00,
2013-10-25 17:03:00,49.3,24.8,30.29,West,270,2.2,-999.0,38,-99.99,,,0.00,Acu-Link.com,2013-10-25 21:03:00,
2013-10-25 17:19:00,48.4,24.6,30.28,SW,225,4.2,-999.0,39,-99.99,,,0.00,Acu-Link.com,2013-10-25 21:19:00,
2013-10-25 17:34:00,49.3,24.1,30.28,WSW,247,3.7,-999.0,37,-99.99,,,0.00,Acu-Link.com,2013-10-25 21:34:00,
2013-10-25 17:49:00,48.0,24.2,30.28,WSW,247,2.2,-999.0,39,-99.99,,,0.00,Acu-Link.com,2013-10-25 21:49:00,
2013-10-25 18:05:00,47.5,23.8,30.27,West,270,1.7,-999.0,39,-99.99,,,0.00,Acu-Link.com,2013-10-25 22:05:00,
2013-10-25 18:20:00,46.6,23.6,30.27,South,180,1.7,-999.0,40,-99.99,,,0.00,Acu-Link.com,2013-10-25 22:20:00,
2013-10-25 18:35:00,45.7,24.5,30.27,WSW,247,0.0,-999.0,43,-99.99,,,0.00,Acu-Link.com,2013-10-25 22:35:00,
2013-10-25 18:51:00,44.6,25.1,30.26,West,270,0.0,-999.0,46,-99.99,,,0.00,Acu-Link.com,2013-10-25 22:51:00,
2013-10-25 19:06:00,43.7,24.3,30.26,SW,225,0.0,-999.0,46,-99.99,,,0.00,Acu-Link.com,2013-10-25 23:06:00,
2013-10-25 19:21:00,42.4,25.1,30.26,SSW,202,0.0,-999.0,50,-99.99,,,0.00,Acu-Link.com,2013-10-25 23:21:00,
2013-10-25 19:37:00,41.2,24.5,30.26,SSW,202,0.0,-999.0,51,-99.99,,,0.00,Acu-Link.com,2013-10-25 23:37:00,
2013-10-25 19:52:00,40.3,25.0,30.26,SSW,202,0.0,-999.0,54,-99.99,,,0.00,Acu-Link.com,2013-10-25 23:52:00,
2013-10-25 20:07:00,39.4,24.6,30.26,SSW,202,0.0,-999.0,55,-99.99,,,0.00,Acu-Link.com,2013-10-26 00:07:00,
2013-10-25 20:23:00,38.7,24.4,30.25,South,180,0.0,-999.0,56,-99.99,,,0.00,Acu-Link.com,2013-10-26 00:23:00,
2013-10-25 20:38:00,38.1,24.2,30.24,SSW,202,1.1,-999.0,57,-99.99,,,0.00,Acu-Link.com,2013-10-26 00:38:00,
2013-10-25 20:54:00,37.9,24.5,30.23,South,180,0.0,-999.0,58,-99.99,,,0.00,Acu-Link.com,2013-10-26 00:54:00,
2013-10-25 21:09:00,37.4,24.8,30.23,SW,225,0.0,-999.0,60,-99.99,,,0.00,Acu-Link.com,2013-10-26 01:09:00,
2013-10-25 21:28:00,37.0,25.2,30.22,SW,225,0.0,-999.0,62,-99.99,,,0.00,Acu-Link.com,2013-10-26 01:28:00,
2013-10-25 21:44:00,37.0,25.2,30.21,WSW,247,2.2,-999.0,62,-99.99,,,0.00,Acu-Link.com,2013-10-26 01:44:00,
2013-10-25 21:59:00,36.9,25.5,30.20,South,180,1.7,-999.0,63,-99.99,,,0.00,Acu-Link.com,2013-10-26 01:59:00,
2013-10-25 22:15:00,36.7,25.7,30.20,West,270,2.2,-999.0,64,-99.99,,,0.00,Acu-Link.com,2013-10-26 02:15:00,
2013-10-25 22:30:00,36.7,26.1,30.20,WSW,247,2.2,-999.0,65,-99.99,,,0.00,Acu-Link.com,2013-10-26 02:30:00,
2013-10-25 22:45:00,36.5,25.9,30.20,West,270,1.7,-999.0,65,-99.99,,,0.00,Acu-Link.com,2013-10-26 02:45:00,
2013-10-25 23:00:00,36.1,26.2,30.20,SSW,202,1.1,-999.0,67,-99.99,,,0.00,Acu-Link.com,2013-10-26 03:00:00,
2013-10-25 23:16:00,35.8,25.9,30.20,South,180,1.7,-999.0,67,-99.99,,,0.00,Acu-Link.com,2013-10-26 03:16:00,
2013-10-25 23:31:00,35.8,26.3,30.19,SSW,202,2.2,-999.0,68,-99.99,,,0.00,Acu-Link.com,2013-10-26 03:31:00,
2013-10-25 23:46:00,35.4,26.3,30.19,SW,225,1.1,-999.0,69,-99.99,,,0.00,Acu-Link.com,2013-10-26 03:46:00,